GW4987 Weather Reports


Display with metric or nautical units.
time (UTC)temp
F
wind
direction
speed
MPH
gust
MPH
rain 1hr
in
rain 24hr
in
rain mn
in
humidity
%
barometer
mb
20260508023009 68 276 11.0 18.0 0.00 0.00 0.00 20 1017.7
20260508022546 68 258 16.0 17.0 0.00 0.00 0.00 20 1017.7
20260508022048 68 265 9.0 16.0 0.00 0.00 0.00 20 1017.6
20260508021546 69 254 7.0 14.0 0.00 0.00 0.00 20 1017.7
20260508021046 69 264 5.0 15.0 0.00 0.00 0.00 19 1017.7
20260508020546 70 272 7.0 10.0 0.00 0.00 0.00 19 1017.6
20260508020009 70 257 10.0 10.0 0.00 0.00 0.00 19 1017.4
20260508015547 71 266 5.0 17.0 0.00 0.00 0.00 18 1017.6
20260508015047 72 264 5.0 7.0 0.00 0.00 0.00 18 1017.3
20260508013008 73 267 7.0 9.0 0.00 0.00 0.00 18 1017.3
20260508012547 74 281 5.0 13.0 0.00 0.00 0.00 18 1017.4
20260508012047 74 269 9.0 11.0 0.00 0.00 0.00 17 1017.2
20260508011547 74 260 9.0 10.0 0.00 0.00 0.00 16 1017.2
20260508011009 74 241 10.0 11.0 0.00 0.00 0.00 16 1017.3
20260508010546 75 292 6.0 12.0 0.00 0.00 0.00 16 1017.2
20260508010046 75 327 8.0 9.0 0.00 0.00 0.00 16 1017.2
20260508005547 75 296 7.0 8.0 0.00 0.00 0.00 15 1017.2
20260508005009 75 61 5.0 9.0 0.00 0.00 0.00 11 1016.8
20260508004546 77 17 5.0 7.0 0.00 0.00 0.00 11 1017.1
20260508004047 77 34 3.0 7.0 0.00 0.00 0.00 11 1017.1
20260508003546 77 249 2.0 4.0 0.00 0.00 0.00 11 1017.3
20260508003046 76 44 0.0 6.0 0.00 0.00 0.00 11 1017.1
20260508002547 76 31 4.0 6.0 0.00 0.00 0.00 11 1017.1
20260508002009 76 54 7.0 11.0 0.00 0.00 0.00 10 1017.1
20260508001547 77 6 8.0 12.0 0.00 0.00 0.00 11 1017.2
20260508001047 76 359 3.0 6.0 0.00 0.00 0.00 11 1017.3
20260508000509 76 320 2.0 6.0 0.00 0.00 0.00 11 1017.3
20260508000009 77 260 10.0 12.0 0.00 0.00 0.00 10 1017.3
20260507235547 79 286 4.0 5.0 0.00 0.00 0.00 10 1017.3
20260507235047 79 283 2.0 4.0 0.00 0.00 0.00 10 1017.4
20260507234547 77 251 6.0 8.0 0.00 0.00 0.00 10 1017.4
20260507234047 79 300 13.0 13.0 0.00 0.00 0.00 10 1017.4
20260507233547 75 28 3.0 10.0 0.00 0.00 0.00 11 1017.5
20260507233009 76 306 13.0 15.0 0.00 0.00 0.00 11 1017.4
20260507232547 77 34 4.0 9.0 0.00 0.00 0.00 11 1017.6
20260507232046 77 31 2.0 8.0 0.00 0.00 0.00 12 1017.5
20260507231510 77 21 5.0 13.0 0.00 0.00 0.00 12 1017.4
20260507231009 78 320 5.0 5.0 0.00 0.00 0.00 11 1017.4
20260507230547 78 100 4.0 5.0 0.00 0.00 0.00 10 1017.4
20260507230010 75 305 10.0 15.0 0.00 0.00 0.00 11 1017.6
20260507225547 77 325 5.0 11.0 0.00 0.00 0.00 12 1017.5
20260507225047 77 335 7.0 7.0 0.00 0.00 0.00 11 1017.5
20260507224547 75 304 11.0 13.0 0.00 0.00 0.00 12 1017.7
20260507222509 76 289 2.0 6.0 0.00 0.00 0.00 12 1017.8
20260507222009 76 103 3.0 6.0 0.00 0.00 0.00 11 1017.7
20260507221547 77 113 2.0 9.0 0.00 0.00 0.00 12 1017.8
20260507221010 75 66 9.0 13.0 0.00 0.00 0.00 11 1017.9
20260507220547 75 75 6.0 6.0 0.00 0.00 0.00 11 1017.9
20260507220047 76 102 3.0 10.0 0.00 0.00 0.00 12 1018.0
20260507215546 76 69 13.0 14.0 0.00 0.00 0.00 11 1018.0
20260507215010 77 52 11.0 11.0 0.00 0.00 0.00 11 1017.9
20260507214546 77 89 4.0 11.0 0.00 0.00 0.00 10 1018.0
20260507214047 76 65 12.0 13.0 0.00 0.00 0.00 10 1018.1
20260507213546 75 46 3.0 8.0 0.00 0.00 0.00 11 1018.2
20260507211547 75 60 8.0 14.0 0.00 0.00 0.00 11 1018.4
20260507211047 76 344 5.0 12.0 0.00 0.00 0.00 11 1018.6
20260507210547 76 334 3.0 4.0 0.00 0.00 0.00 10 1018.6
20260507204009 74 14 3.0 9.0 0.00 0.00 0.00 13 1018.8
20260507203547 74 276 3.0 5.0 0.00 0.00 0.00 12 1018.8
20260507203009 74 176 3.0 6.0 0.00 0.00 0.00 14 1019.0
20260507202547 72 258 5.0 13.0 0.00 0.00 0.00 14 1019.0
20260507202047 72 292 6.0 10.0 0.00 0.00 0.00 14 1019.0
20260507201547 73 356 3.0 10.0 0.00 0.00 0.00 10 1019.2
20260507201047 73 321 3.0 6.0 0.00 0.00 0.00 14 1019.2
20260507200547 73 37 7.0 11.0 0.00 0.00 0.00 14 1019.2
20260507200047 71 327 8.0 13.0 0.00 0.00 0.00 14 1019.2
20260507195509 74 309 8.0 13.0 0.00 0.00 0.00 15 1019.5
20260507195009 73 291 5.0 5.0 0.00 0.00 0.00 15 1019.5
20260507194547 72 314 10.0 12.0 0.00 0.00 0.00 15 1019.6
20260507194047 73 338 6.0 15.0 0.00 0.00 0.00 14 1019.5
20260507193546 73 75 6.0 6.0 0.00 0.00 0.00 16 1019.5
20260507193046 72 318 8.0 11.0 0.00 0.00 0.00 17 1019.7
20260507192547 72 50 6.0 9.0 0.00 0.00 0.00 15 1019.8
20260507192008 72 354 3.0 9.0 0.00 0.00 0.00 16 1019.9
20260507191546 73 322 7.0 13.0 0.00 0.00 0.00 16 1020.0
20260507191047 71 35 5.0 7.0 0.00 0.00 0.00 16 1019.7
20260507190508 72 8 3.0 11.0 0.00 0.00 0.00 16 1020.1
20260507190008 70 336 8.0 14.0 0.00 0.00 0.00 17 1019.9
20260507185547 71 300 7.0 15.0 0.00 0.00 0.00 18 1020.0
20260507185009 72 59 7.0 10.0 0.00 0.00 0.00 17 1020.0
20260507184546 70 42 2.0 9.0 0.00 0.00 0.00 18 1020.1
20260507184047 70 10 7.0 16.0 0.00 0.00 0.00 18 1020.1
20260507183547 71 122 4.0 8.0 0.00 0.00 0.00 20 1020.1
20260507183047 70 125 2.0 7.0 0.00 0.00 0.00 19 1020.2
20260507182547 69 329 3.0 6.0 0.00 0.00 0.00 20 1020.1
20260507181009 70 346 5.0 11.0 0.00 0.00 0.00 20 1020.2
20260507180547 70 293 4.0 9.0 0.00 0.00 0.00 21 1020.2
20260507180047 70 325 7.0 10.0 0.00 0.00 0.00 21 1020.2
20260507175547 70 47 5.0 11.0 0.00 0.00 0.00 21 1020.1
20260507175046 68 72 6.0 12.0 0.00 0.00 0.00 21 1020.2
20260507174547 68 31 8.0 13.0 0.00 0.00 0.00 21 1020.2
20260507174009 68 321 8.0 10.0 0.00 0.00 0.00 22 1020.4
20260507173546 68 168 0.0 6.0 0.00 0.00 0.00 22 1020.6
20260507173047 69 36 6.0 10.0 0.00 0.00 0.00 20 1020.5
20260507172509 67 2 5.0 6.0 0.00 0.00 0.00 22 1020.5
20260507172009 67 354 7.0 10.0 0.00 0.00 0.00 22 1020.4
20260507171547 67 71 6.0 8.0 0.00 0.00 0.00 22 1020.5
20260507165546 66 46 4.0 13.0 0.00 0.00 0.00 23 1020.5
20260507165009 66 63 2.0 6.0 0.00 0.00 0.00 23 1020.5
20260507164547 67 64 9.0 11.0 0.00 0.00 0.00 23 1020.4
20260507164047 66 10 7.0 9.0 0.00 0.00 0.00 22 1020.7
20260507163547 66 59 5.0 12.0 0.00 0.00 0.00 23 1020.5
20260507163010 66 40 3.0 9.0 0.00 0.00 0.00 23 1020.5
20260507162547 66 357 4.0 7.0 0.00 0.00 0.00 23 1020.7
20260507162047 67 41 3.0 4.0 0.00 0.00 0.00 23 1020.7
20260507161546 65 4 3.0 7.0 0.00 0.00 0.00 22 1020.8
20260507161046 64 75 2.0 11.0 0.00 0.00 0.00 23 1020.5
20260507160547 65 52 6.0 8.0 0.00 0.00 0.00 23 1020.7
20260507160009 66 71 6.0 7.0 0.00 0.00 0.00 22 1020.7
20260507155546 64 93 2.0 9.0 0.00 0.00 0.00 23 1020.8
20260507155047 64 86 3.0 7.0 0.00 0.00 0.00 23 1020.8
20260507154510 64 86 5.0 8.0 0.00 0.00 0.00 23 1020.9
20260507154010 64 109 7.0 10.0 0.00 0.00 0.00 23 1020.9
20260507153547 63 125 2.0 7.0 0.00 0.00 0.00 24 1020.9
20260507153009 64 30 9.0 10.0 0.00 0.00 0.00 23 1020.9
20260507152546 63 70 4.0 6.0 0.00 0.00 0.00 24 1020.8
20260507152046 62 84 5.0 9.0 0.00 0.00 0.00 24 1020.8
20260507151546 61 64 3.0 8.0 0.00 0.00 0.00 24 1020.7
20260507151009 61 100 7.0 11.0 0.00 0.00 0.00 24 1020.9
20260507150546 61 72 5.0 8.0 0.00 0.00 0.00 25 1020.8
20260507150046 60 66 6.0 11.0 0.00 0.00 0.00 25 1021.1
20260507145547 61 107 5.0 9.0 0.00 0.00 0.00 24 1020.9
20260507145009 60 53 3.0 9.0 0.00 0.00 0.00 25 1020.7
20260507144547 60 115 4.0 8.0 0.00 0.00 0.00 24 1021.1
20260507144047 61 77 4.0 6.0 0.00 0.00 0.00 25 1021.1
20260507143526 59 105 6.0 7.0 0.00 0.00 0.00 25 1021.0
20260507143046 60 89 3.0 4.0 0.00 0.00 0.00 26 1021.3
20260507142547 58 77 4.0 6.0 0.00 0.00 0.00 26 1020.8
20260507142010 58 96 5.0 9.0 0.00 0.00 0.00 26 1020.8
20260507141547 58 105 3.0 4.0 0.00 0.00 0.00 27 1020.8
20260507141047 58 112 4.0 6.0 0.00 0.00 0.00 26 1021.0
20260507140510 58 119 0.0 4.0 0.00 0.00 0.00 27 1020.9
20260507140047 58 114 4.0 5.0 0.00 0.00 0.00 26 1020.9
20260507135547 58 88 3.0 4.0 0.00 0.00 0.00 27 1020.8
20260507135009 58 65 2.0 5.0 0.00 0.00 0.00 28 1020.8
20260507134547 58 100 2.0 4.0 0.00 0.00 0.00 29 1020.8
20260507134047 56 124 3.0 4.0 0.00 0.00 0.00 31 1020.6
20260507131047 49 12 0.0 2.0 0.00 0.00 0.00 43 1020.5
20260507130547 49 261 3.0 4.0 0.00 0.00 0.00 46 1020.4
20260507130047 49 19 0.0 2.0 0.00 0.00 0.00 45 1020.5
20260507125547 48 293 2.0 3.0 0.00 0.00 0.00 49 1020.4
20260507125047 46 260 3.0 4.0 0.00 0.00 0.00 54 1020.4
20260507124547 46 260 2.0 3.0 0.00 0.00 0.00 54 1020.4
20260507124010 44 269 3.0 3.0 0.00 0.00 0.00 58 1020.5
20260507123547 42 258 2.0 5.0 0.00 0.00 0.00 61 1020.4
20260507123047 41 272 4.0 5.0 0.00 0.00 0.00 62 1020.3
20260507122509 42 180 2.0 4.0 0.00 0.00 0.00 61 1020.3
20260507122009 42 265 4.0 4.0 0.00 0.00 0.00 61 1020.2
20260507121547 43 259 4.0 5.0 0.00 0.00 0.00 60 1020.4
20260507121009 43 259 3.0 5.0 0.00 0.00 0.00 60 1020.5
20260507120546 43 265 3.0 4.0 0.00 0.00 0.00 60 1020.2
20260507120047 43 264 4.0 5.0 0.00 0.00 0.00 59 1020.4
20260507115547 43 262 3.0 4.0 0.00 0.00 0.00 59 1020.5
20260507115010 44 264 3.0 4.0 0.00 0.00 0.00 58 1020.4
20260507114547 44 266 5.0 5.0 0.00 0.00 0.00 58 1020.6
20260507114047 44 261 4.0 4.0 0.00 0.00 0.00 58 1020.6
20260507113547 43 260 5.0 5.0 0.00 0.00 0.00 59 1020.5
20260507113009 42 283 3.0 5.0 0.00 0.00 0.00 59 1020.5
20260507112547 43 276 3.0 5.0 0.00 0.00 0.00 59 1020.6
20260507112047 43 253 5.0 5.0 0.00 0.00 0.00 58 1020.7
20260507111547 44 251 5.0 6.0 0.00 0.00 0.00 57 1020.6
20260507111047 45 258 4.0 5.0 0.00 0.00 0.00 55 1020.5
20260507110547 45 263 4.0 6.0 0.00 0.00 0.00 56 1020.6
20260507110047 44 271 5.0 6.0 0.00 0.00 0.00 57 1020.6
20260507105547 44 260 4.0 5.0 0.00 0.00 0.00 57 1020.6
20260507105047 45 263 3.0 5.0 0.00 0.00 0.00 55 1020.5
20260507104509 45 269 4.0 5.0 0.00 0.00 0.00 55 1020.5
20260507104009 45 265 4.0 5.0 0.00 0.00 0.00 55 1020.5
20260507103547 44 271 4.0 5.0 0.00 0.00 0.00 56 1020.2
20260507103009 45 276 3.0 5.0 0.00 0.00 0.00 56 1020.4
20260507102547 45 266 4.0 4.0 0.00 0.00 0.00 55 1020.4
20260507102047 45 256 4.0 4.0 0.00 0.00 0.00 55 1020.3
20260507100046 44 272 3.0 5.0 0.00 0.00 0.00 57 1020.5
20260507095509 45 304 4.0 6.0 0.00 0.00 0.00 56 1020.4
20260507092009 46 325 3.0 5.0 0.00 0.00 0.00 54 1020.2
20260507091547 46 300 3.0 4.0 0.00 0.00 0.00 54 1020.4
20260507091047 46 318 3.0 5.0 0.00 0.00 0.00 53 1020.5
20260507090509 47 290 3.0 5.0 0.00 0.00 0.00 53 1020.3
20260507090009 47 266 6.0 6.0 0.00 0.00 0.00 53 1020.3
20260507085547 47 273 5.0 5.0 0.00 0.00 0.00 53 1020.2
20260507083546 49 240 2.0 2.0 0.00 0.00 0.00 50 1020.6
20260507083009 49 113 0.0 2.0 0.00 0.00 0.00 49 1020.2
20260507082547 50 112 3.0 3.0 0.00 0.00 0.00 47 1020.6
20260507082046 51 72 2.0 3.0 0.00 0.00 0.00 47 1020.5
20260507081510 52 232 2.0 3.0 0.00 0.00 0.00 45 1020.3
20260507081047 52 124 0.0 3.0 0.00 0.00 0.00 45 1020.4
20260507080546 52 326 0.0 3.0 0.00 0.00 0.00 45 1020.5
20260507080010 53 235 2.0 6.0 0.00 0.00 0.00 44 1020.3
20260507075547 53 250 6.0 9.0 0.00 0.00 0.00 43 1020.3
20260507075046 53 268 6.0 8.0 0.00 0.00 0.00 44 1020.2
20260507074547 52 275 6.0 6.0 0.00 0.00 0.00 45 1020.2
20260507074010 52 282 0.0 4.0 0.00 0.00 0.00 45 1020.2
20260507073546 50 276 3.0 3.0 0.00 0.00 0.00 47 1020.3
20260507073047 50 258 2.0 3.0 0.00 0.00 0.00 48 1020.3
20260507072547 50 37 4.0 4.0 0.00 0.00 0.00 48 1020.3
20260507072010 50 79 3.0 4.0 0.00 0.00 0.00 47 1020.4
20260507071547 51 121 3.0 3.0 0.00 0.00 0.00 47 1020.2
20260507071047 51 93 2.0 4.0 0.00 0.00 0.00 46 1020.3
20260507070513 52 107 2.0 3.0 0.00 0.00 0.00 45 1020.3
20260507070008 53 228 4.0 6.0 0.00 0.00 0.00 44 1020.2
20260507065547 53 213 2.0 6.0 0.00 0.00 0.00 43 1020.3
20260507065047 53 263 5.0 6.0 0.00 0.00 0.00 43 1020.3
20260507064546 54 255 5.0 9.0 0.00 0.00 0.00 43 1020.4
20260507064046 54 282 3.0 6.0 0.00 0.00 0.00 43 1020.4
20260507063547 53 280 5.0 5.0 0.00 0.00 0.00 43 1020.4
20260507063010 52 236 5.0 7.0 0.00 0.00 0.00 44 1020.3
20260507062547 52 137 3.0 4.0 0.00 0.00 0.00 44 1020.3
20260507062047 52 204 0.0 2.0 0.00 0.00 0.00 44 1020.2
20260507060046 54 194 3.0 8.0 0.00 0.00 0.00 41 1020.1
20260507055546 54 201 3.0 4.0 0.00 0.00 0.00 42 1020.1
20260507055047 54 170 3.0 5.0 0.00 0.00 0.00 42 1020.2
20260507054510 54 185 4.0 5.0 0.00 0.00 0.00 41 1020.1
20260507054010 54 213 5.0 6.0 0.00 0.00 0.00 41 1020.2
20260507053547 55 197 3.0 6.0 0.00 0.00 0.00 41 1020.2
20260507053010 55 258 3.0 10.0 0.00 0.00 0.00 40 1020.0
20260507052546 55 241 5.0 9.0 0.00 0.00 0.00 40 1020.1
20260507052046 55 242 10.0 11.0 0.00 0.00 0.00 40 1020.0
20260507051547 55 196 7.0 9.0 0.00 0.00 0.00 40 1020.0
20260507051009 55 257 4.0 6.0 0.00 0.00 0.00 40 1020.1
20260507050546 55 182 2.0 5.0 0.00 0.00 0.00 40 1019.9
20260507050046 55 184 3.0 8.0 0.00 0.00 0.00 40 1019.8
20260507045509 56 211 5.0 12.0 0.00 0.00 0.00 40 1019.8
20260507045009 56 167 3.0 13.0 0.00 0.00 0.00 39 1020.1
20260507044547 56 269 6.0 14.0 0.00 0.00 0.00 40 1019.7
20260507044046 56 221 3.0 9.0 0.00 0.00 0.00 40 1019.8
20260507043547 56 238 5.0 10.0 0.00 0.00 0.00 39 1019.7
20260507043047 56 254 6.0 11.0 0.00 0.00 0.00 39 1019.7
20260507041046 56 213 5.0 11.0 0.00 0.00 0.00 39 1019.5
20260507040509 56 257 8.0 14.0 0.00 0.00 0.00 39 1019.4
20260507034546 57 217 5.0 16.0 0.00 0.00 0.00 38 1019.3
20260507034046 57 256 8.0 14.0 0.00 0.00 0.00 38 1019.4
20260507033547 57 254 6.0 14.0 0.00 0.00 0.00 38 1019.0
20260507033010 57 231 7.0 15.0 0.00 0.00 0.00 38 1019.3
20260507032546 57 239 6.0 18.0 0.00 0.00 0.00 37 1018.9
20260507032047 57 260 7.0 12.0 0.00 0.00 0.00 37 1018.8
20260507030547 58 258 3.0 7.0 0.00 0.00 0.00 37 1018.8
20260507030010 58 196 3.0 5.0 0.00 0.00 0.00 37 1018.8
20260507025546 59 286 5.0 6.0 0.00 0.00 0.00 36 1018.9
20260507025046 59 286 5.0 6.0 0.00 0.00 0.00 36 1018.7
20260507024547 59 286 5.0 6.0 0.00 0.00 0.00 36 1018.7
20260507024011 59 286 5.0 6.0 0.00 0.00 0.00 36 1018.5
20260507023546 59 286 5.0 6.0 0.00 0.00 0.00 36 1018.4
20260507023047 59 282 6.0 6.0 0.00 0.00 0.00 36 1018.2